GW3458 Weather Reports


Display with metric or nautical units.
time (UTC)temp
F
wind
direction
speed
MPH
gust
MPH
rain 1hr
in
rain 24hr
in
rain mn
in
humidity
%
barometer
mb
20260906022227 77 282 0.0 3.0 0.00 0.00 0.00 91 1016.7
20260906021723 77 263 0.0 4.0 0.00 0.00 0.00 90 1016.9
20260906021222 77 261 0.0 1.0 0.00 0.00 0.00 90 1016.7
20260906020717 77 269 0.0 1.0 0.00 0.00 0.00 90 1016.8
20260906020211 77 263 0.0 8.0 0.00 0.00 0.00 90 1016.7
20260906015706 77 245 3.0 6.0 0.00 0.00 0.00 90 1016.8
20260906015205 78 274 1.0 3.0 0.00 0.00 0.00 89 1016.6
20260906014705 78 271 0.0 7.0 0.00 0.00 0.00 89 1016.7
20260906014201 78 305 2.0 4.0 0.00 0.00 0.00 89 1016.7
20260906013657 78 297 1.0 4.0 0.00 0.00 0.00 89 1016.5
20260906013152 79 276 1.0 3.0 0.00 0.00 0.00 88 1016.5
20260906012651 79 269 0.0 2.0 0.00 0.00 0.00 88 1016.3
20260906012146 79 272 3.0 6.0 0.00 0.00 0.00 87 1016.2
20260906011642 80 274 4.0 7.0 0.00 0.00 0.00 87 1016.3
20260906011142 80 280 2.0 7.0 0.00 0.00 0.00 86 1016.5
20260906010637 80 316 2.0 6.0 0.00 0.00 0.00 86 1016.3
20260906010134 81 264 0.0 2.0 0.00 0.00 0.00 86 1016.1
20260906005633 81 262 1.0 8.0 0.00 0.00 0.00 85 1016.2
20260906005133 81 272 2.0 7.0 0.00 0.00 0.00 85 1016.2
20260906004632 82 274 3.0 4.0 0.00 0.00 0.00 84 1016.0
20260906004127 82 265 2.0 10.0 0.00 0.00 0.00 84 1015.8
20260906003622 82 256 5.0 8.0 0.00 0.00 0.00 83 1015.6
20260906003118 83 277 3.0 6.0 0.00 0.00 0.00 82 1015.8
20260906002613 83 278 2.0 7.0 0.00 0.00 0.00 82 1015.8
20260906002107 83 301 6.0 8.0 0.00 0.00 0.00 81 1015.7
20260906001602 84 311 2.0 4.0 0.00 0.00 0.00 81 1015.7
20260906001057 84 306 1.0 3.0 0.00 0.00 0.00 80 1015.7
20260906000553 85 261 3.0 7.0 0.00 0.00 0.00 80 1015.7
20260906000048 85 265 2.0 6.0 0.00 0.00 0.00 79 1015.7
20260905235547 85 285 3.0 4.0 0.00 0.00 0.00 79 1015.6
20260905235042 86 286 5.0 7.0 0.00 0.00 0.00 78 1015.6
20260905234538 86 311 2.0 6.0 0.00 0.00 0.00 78 1015.9
20260905234033 87 272 2.0 6.0 0.00 0.00 0.00 77 1015.5
20260905233532 87 250 2.0 7.0 0.00 0.00 0.00 77 1015.7
20260905233027 88 277 0.0 8.0 0.00 0.00 0.00 76 1015.4
20260905232522 88 267 1.0 6.0 0.00 0.00 0.00 76 1015.3
20260905232018 89 294 2.0 9.0 0.00 0.00 0.00 76 1015.4
20260905231513 89 297 3.0 7.0 0.00 0.00 0.00 76 1015.2
20260905231010 89 314 3.0 9.0 0.00 0.00 0.00 75 1015.0
20260905230508 90 241 4.0 11.0 0.00 0.00 0.00 74 1015.1
20260905230007 91 303 2.0 6.0 0.00 0.00 0.00 73 1015.0
20260905225502 91 263 8.0 11.0 0.00 0.00 0.00 72 1015.1
20260905224957 91 261 0.0 4.0 0.00 0.00 0.00 71 1015.1
20260905224452 92 275 1.0 6.0 0.00 0.00 0.00 70 1015.1
20260905223951 93 233 1.0 2.0 0.00 0.00 0.00 69 1015.0
20260905223449 92 261 1.0 3.0 0.00 0.00 0.00 68 1015.1
20260905222944 92 266 0.0 2.0 0.00 0.00 0.00 70 1015.1
20260905222444 93 250 2.0 3.0 0.00 0.00 0.00 68 1015.1
20260905221939 93 268 3.0 3.0 0.00 0.00 0.00 68 1015.3
20260905221436 93 266 3.0 7.0 0.00 0.00 0.00 68 1015.1
20260905220932 92 248 1.0 3.0 0.00 0.00 0.00 68 1015.1
20260905220428 93 267 4.0 4.0 0.00 0.00 0.00 67 1015.1
20260905215926 93 252 0.0 3.0 0.00 0.00 0.00 67 1014.9
20260905215417 93 269 1.0 6.0 0.00 0.00 0.00 67 1015.0
20260905214913 95 264 0.0 2.0 0.00 0.00 0.00 65 1015.2
20260905214408 94 286 0.0 4.0 0.00 0.00 0.00 65 1015.0
20260905213907 95 297 2.0 6.0 0.00 0.00 0.00 64 1015.0
20260905213404 93 268 1.0 3.0 0.00 0.00 0.00 66 1014.9
20260905212859 94 243 2.0 4.0 0.00 0.00 0.00 65 1015.0
20260905212354 96 266 0.0 2.0 0.00 0.00 0.00 64 1014.6
20260905211853 95 248 0.0 2.0 0.00 0.00 0.00 64 1014.8
20260905211349 95 259 0.0 6.0 0.00 0.00 0.00 63 1014.9
20260905210840 93 261 0.0 3.0 0.00 0.00 0.00 66 1014.9
20260905210340 96 237 0.0 3.0 0.00 0.00 0.00 64 1015.0
20260905205839 96 259 0.0 4.0 0.00 0.00 0.00 64 1015.0
20260905205333 94 258 0.0 1.0 0.00 0.00 0.00 67 1015.0
20260905204833 94 250 0.0 2.0 0.00 0.00 0.00 68 1015.1
20260905204329 94 294 2.0 6.0 0.00 0.00 0.00 67 1015.1
20260905203827 93 263 0.0 7.0 0.00 0.00 0.00 69 1015.0
20260905203324 93 266 1.0 4.0 0.00 0.00 0.00 69 1015.2
20260905202819 92 254 4.0 6.0 0.00 0.00 0.00 69 1015.2
20260905202314 93 271 1.0 6.0 0.00 0.00 0.00 69 1015.3
20260905201809 94 262 0.0 2.0 0.00 0.00 0.00 67 1015.1
20260905201304 94 258 0.0 2.0 0.00 0.00 0.00 69 1015.3
20260905200759 93 244 4.0 7.0 0.00 0.00 0.00 69 1015.4
20260905200255 93 250 0.0 4.0 0.00 0.00 0.00 70 1015.3
20260905195753 94 267 1.0 3.0 0.00 0.00 0.00 66 1015.4
20260905195248 94 252 0.0 2.0 0.00 0.00 0.00 68 1015.3
20260905194744 94 249 0.0 2.0 0.00 0.00 0.00 67 1015.4
20260905194242 95 280 3.0 4.0 0.00 0.00 0.00 67 1015.5
20260905193737 95 259 0.0 1.0 0.00 0.00 0.00 66 1015.3
20260905193232 95 301 1.0 2.0 0.00 0.00 0.00 65 1015.3
20260905192727 95 261 0.0 4.0 0.00 0.00 0.00 68 1015.5
20260905192224 94 246 0.0 1.0 0.00 0.00 0.00 68 1015.5
20260905191723 94 250 0.0 1.0 0.00 0.00 0.00 68 1015.3
20260905191221 95 244 4.0 6.0 0.00 0.00 0.00 67 1015.6
20260905190720 94 245 3.0 7.0 0.00 0.00 0.00 67 1015.5
20260905190219 93 265 0.0 2.0 0.00 0.00 0.00 68 1015.5
20260905185718 94 305 2.0 3.0 0.00 0.00 0.00 67 1015.6
20260905185213 94 238 2.0 6.0 0.00 0.00 0.00 68 1015.6
20260905184713 95 237 2.0 6.0 0.00 0.00 0.00 68 1015.5
20260905184212 94 285 3.0 4.0 0.00 0.00 0.00 65 1015.7
20260905183706 94 183 3.0 4.0 0.00 0.00 0.00 67 1016.0
20260905183202 94 243 1.0 6.0 0.00 0.00 0.00 67 1015.8
20260905182700 94 286 1.0 4.0 0.00 0.00 0.00 67 1015.8
20260905182154 94 259 0.0 4.0 0.00 0.00 0.00 67 1015.8
20260905181650 95 218 0.0 1.0 0.00 0.00 0.00 68 1015.9
20260905181149 94 280 1.0 2.0 0.00 0.00 0.00 69 1015.7
20260905180644 94 274 0.0 3.0 0.00 0.00 0.00 69 1015.8
20260905180139 94 245 0.0 2.0 0.00 0.00 0.00 69 1015.7
20260905175637 93 263 0.0 1.0 0.00 0.00 0.00 69 1016.1
20260905175133 93 222 0.0 4.0 0.00 0.00 0.00 70 1015.9
20260905174629 93 264 0.0 1.0 0.00 0.00 0.00 70 1016.0
20260905174124 93 301 0.0 4.0 0.00 0.00 0.00 69 1016.0
20260905173620 93 280 0.0 4.0 0.00 0.00 0.00 71 1016.2
20260905173116 95 234 1.0 4.0 0.00 0.00 0.00 68 1016.1
20260905172614 93 293 1.0 3.0 0.00 0.00 0.00 68 1016.2
20260905172104 93 240 0.0 3.0 0.00 0.00 0.00 69 1016.1
20260905171600 93 268 1.0 6.0 0.00 0.00 0.00 71 1016.2
20260905171056 93 239 0.0 1.0 0.00 0.00 0.00 69 1016.3
20260905170553 92 276 1.0 4.0 0.00 0.00 0.00 72 1016.2
20260905170048 93 290 0.0 3.0 0.00 0.00 0.00 71 1016.3
20260905165542 92 243 1.0 2.0 0.00 0.00 0.00 70 1016.4
20260905165037 93 249 1.0 3.0 0.00 0.00 0.00 71 1016.3
20260905164532 92 249 0.0 4.0 0.00 0.00 0.00 71 1016.4
20260905164027 94 274 1.0 1.0 0.00 0.00 0.00 68 1016.4
20260905163523 93 272 0.0 4.0 0.00 0.00 0.00 71 1016.5
20260905163019 92 259 0.0 0.0 0.00 0.00 0.00 72 1016.2
20260905162515 91 303 1.0 2.0 0.00 0.00 0.00 71 1016.5
20260905162009 92 259 0.0 6.0 0.00 0.00 0.00 72 1016.6
20260905161508 91 242 1.0 2.0 0.00 0.00 0.00 74 1016.3
20260905161006 90 274 0.0 2.0 0.00 0.00 0.00 73 1016.4
20260905160459 90 250 0.0 2.0 0.00 0.00 0.00 73 1016.2
20260905155959 89 271 0.0 6.0 0.00 0.00 0.00 74 1016.5
20260905155454 90 250 3.0 6.0 0.00 0.00 0.00 73 1016.3
20260905154953 89 260 0.0 3.0 0.00 0.00 0.00 75 1016.4
20260905154448 89 258 1.0 3.0 0.00 0.00 0.00 74 1016.1
20260905153943 89 270 2.0 6.0 0.00 0.00 0.00 74 1016.4
20260905153440 89 261 2.0 3.0 0.00 0.00 0.00 73 1016.3
20260905152939 89 265 3.0 3.0 0.00 0.00 0.00 73 1016.3
20260905152439 89 270 1.0 1.0 0.00 0.00 0.00 73 1016.0
20260905151928 90 182 3.0 4.0 0.00 0.00 0.00 73 1016.3
20260905151419 89 281 0.0 2.0 0.00 0.00 0.00 73 1016.0
20260905150918 88 243 0.0 0.0 0.00 0.00 0.00 73 1016.0
20260905150413 88 270 0.0 4.0 0.00 0.00 0.00 74 1016.1
20260905145909 88 266 0.0 0.0 0.00 0.00 0.00 74 1015.9
20260905145409 88 255 0.0 0.0 0.00 0.00 0.00 73 1016.1
20260905144904 88 260 0.0 3.0 0.00 0.00 0.00 74 1016.0
20260905144359 87 245 0.0 1.0 0.00 0.00 0.00 76 1015.9
20260905143857 87 252 1.0 3.0 0.00 0.00 0.00 76 1015.8
20260905143351 87 262 1.0 4.0 0.00 0.00 0.00 76 1015.8
20260905142846 88 253 0.0 1.0 0.00 0.00 0.00 76 1015.8
20260905142344 89 264 0.0 1.0 0.00 0.00 0.00 74 1015.7
20260905141841 88 262 0.0 0.0 0.00 0.00 0.00 76 1015.4
20260905141336 87 250 0.0 0.0 0.00 0.00 0.00 75 1016.0
20260905140832 87 268 0.0 0.0 0.00 0.00 0.00 76 1015.7
20260905140332 87 259 0.0 2.0 0.00 0.00 0.00 77 1015.7
20260905135830 86 246 0.0 0.0 0.00 0.00 0.00 79 1015.8
20260905135326 86 234 0.0 0.0 0.00 0.00 0.00 77 1015.7
20260905134821 86 266 0.0 0.0 0.00 0.00 0.00 79 1015.5
20260905134314 85 253 0.0 0.0 0.00 0.00 0.00 79 1015.5
20260905133809 85 272 0.0 0.0 0.00 0.00 0.00 80 1015.5
20260905133305 85 263 0.0 0.0 0.00 0.00 0.00 81 1015.6
20260905132803 84 265 0.0 0.0 0.00 0.00 0.00 82 1015.5
20260905132259 83 278 0.0 1.0 0.00 0.00 0.00 84 1015.7
20260905131754 82 234 0.0 0.0 0.00 0.00 0.00 86 1015.5
20260905131249 82 259 0.0 0.0 0.00 0.00 0.00 89 1015.9
20260905130744 81 258 0.0 0.0 0.00 0.00 0.00 93 1015.9
20260905130243 79 265 0.0 0.0 0.00 0.00 0.00 95 1015.6
20260905125738 78 286 0.0 0.0 0.00 0.00 0.00 99 1015.6
20260905125233 77 265 0.0 0.0 0.00 0.00 0.00 99 1015.3
20260905124730 76 269 0.0 0.0 0.00 0.00 0.00 99 1015.3
20260905124225 76 265 0.0 0.0 0.00 0.00 0.00 99 1015.4
20260905123720 75 263 0.0 0.0 0.00 0.00 0.00 99 1015.2
20260905123218 75 256 0.0 0.0 0.00 0.00 0.00 99 1015.1
20260905122717 75 258 0.0 0.0 0.00 0.00 0.00 99 1015.4
20260905122211 74 264 0.0 0.0 0.00 0.00 0.00 99 1015.2
20260905121706 74 257 0.0 0.0 0.00 0.00 0.00 99 1015.2
20260905121203 74 257 0.0 0.0 0.00 0.00 0.00 99 1015.2
20260905120701 74 257 0.0 0.0 0.00 0.00 0.00 99 1015.3
20260905120155 74 269 0.0 0.0 0.00 0.00 0.00 99 1015.1
20260905115650 73 261 0.0 0.0 0.00 0.00 0.00 99 1015.0
20260905115145 73 262 0.0 0.0 0.00 0.00 0.00 99 1015.3
20260905114645 73 262 0.0 0.0 0.00 0.00 0.00 99 1015.1
20260905114143 73 259 0.0 0.0 0.00 0.00 0.00 99 1014.6
20260905113637 73 257 0.0 0.0 0.00 0.00 0.00 99 1015.0
20260905113133 73 257 0.0 0.0 0.00 0.00 0.00 99 1014.8
20260905112627 73 257 0.0 0.0 0.00 0.00 0.00 99 1014.9
20260905112124 73 257 0.0 0.0 0.00 0.00 0.00 99 1014.8
20260905111624 73 261 0.0 0.0 0.00 0.00 0.00 99 1014.9
20260905111123 73 259 0.0 0.0 0.00 0.00 0.00 99 1014.6
20260905110622 73 257 0.0 0.0 0.00 0.00 0.00 99 1014.8
20260905110117 73 257 0.0 0.0 0.00 0.00 0.00 99 1014.8
20260905105618 73 257 0.0 0.0 0.00 0.00 0.00 99 1014.9
20260905105116 74 259 0.0 0.0 0.00 0.00 0.00 99 1014.6
20260905104612 74 257 0.0 0.0 0.00 0.00 0.00 99 1014.8
20260905104113 74 259 0.0 0.0 0.00 0.00 0.00 99 1015.0
20260905103608 74 260 0.0 0.0 0.00 0.00 0.00 99 1015.1
20260905103104 74 258 0.0 0.0 0.00 0.00 0.00 99 1014.9
20260905102554 74 259 0.0 0.0 0.00 0.00 0.00 99 1014.9
20260905102051 74 258 0.0 0.0 0.00 0.00 0.00 99 1014.6
20260905101549 74 259 0.0 0.0 0.00 0.00 0.00 99 1014.9
20260905101047 74 264 0.0 0.0 0.00 0.00 0.00 99 1014.6
20260905100544 74 259 0.0 0.0 0.00 0.00 0.00 99 1014.9
20260905100043 74 259 0.0 0.0 0.00 0.00 0.00 99 1014.9
20260905095537 74 260 0.0 0.0 0.00 0.00 0.00 99 1014.6
20260905095033 74 262 0.0 0.0 0.00 0.00 0.00 99 1014.6
20260905094527 74 257 0.0 0.0 0.00 0.00 0.00 99 1015.0
20260905094027 74 259 0.0 0.0 0.00 0.00 0.00 99 1014.9
20260905093516 74 260 0.0 0.0 0.00 0.00 0.00 99 1015.1
20260905093013 74 260 0.0 0.0 0.00 0.00 0.00 99 1015.0
20260905092512 75 267 0.0 0.0 0.00 0.00 0.00 99 1014.9
20260905092009 75 259 0.0 0.0 0.00 0.00 0.00 99 1014.9
20260905091508 75 264 0.0 0.0 0.00 0.00 0.00 99 1014.9
20260905091002 75 260 0.0 0.0 0.00 0.00 0.00 99 1014.9
20260905090457 75 262 0.0 0.0 0.00 0.00 0.00 99 1014.6
20260905085956 75 263 0.0 0.0 0.00 0.00 0.00 99 1014.8
20260905085455 75 262 0.0 0.0 0.00 0.00 0.00 99 1014.9
20260905084951 75 264 0.0 0.0 0.00 0.00 0.00 99 1014.9
20260905084451 75 261 0.0 0.0 0.00 0.00 0.00 99 1015.1
20260905083951 75 259 0.0 0.0 0.00 0.00 0.00 99 1014.9
20260905083447 75 260 0.0 0.0 0.00 0.00 0.00 99 1015.1
20260905082942 75 267 0.0 0.0 0.00 0.00 0.00 99 1015.1
20260905082438 75 260 0.0 0.0 0.00 0.00 0.00 99 1015.0
20260905081934 75 266 0.0 0.0 0.00 0.00 0.00 99 1015.2
20260905081433 75 261 0.0 0.0 0.00 0.00 0.00 99 1015.0
20260905080932 75 268 0.0 0.0 0.00 0.00 0.00 99 1015.2
20260905080427 75 259 0.0 0.0 0.00 0.00 0.00 99 1015.2
20260905075926 76 263 0.0 0.0 0.00 0.00 0.00 99 1015.1
20260905075421 76 269 0.0 0.0 0.00 0.00 0.00 99 1015.2
20260905074919 76 262 0.0 0.0 0.00 0.00 0.00 99 1015.2
20260905074415 76 257 0.0 0.0 0.00 0.00 0.00 99 1015.2
20260905073906 76 261 0.0 0.0 0.00 0.00 0.00 99 1015.1
20260905073401 76 259 0.0 0.0 0.00 0.00 0.00 99 1015.3
20260905072856 76 265 0.0 0.0 0.00 0.00 0.00 99 1015.2
20260905072350 76 259 0.0 0.0 0.00 0.00 0.00 99 1015.3
20260905071847 76 259 0.0 0.0 0.00 0.00 0.00 99 1015.1
20260905071343 76 260 0.0 0.0 0.00 0.00 0.00 99 1015.4
20260905070842 76 265 0.0 0.0 0.00 0.00 0.00 99 1015.4
20260905070339 77 266 0.0 0.0 0.00 0.00 0.00 98 1015.3
20260905065838 77 258 0.0 0.0 0.00 0.00 0.00 98 1015.3
20260905065336 77 280 0.0 0.0 0.00 0.00 0.00 97 1015.2
20260905064832 77 260 0.0 0.0 0.00 0.00 0.00 97 1015.3
20260905064328 77 266 0.0 0.0 0.00 0.00 0.00 98 1015.3
20260905063826 77 286 0.0 0.0 0.00 0.00 0.00 98 1015.4
20260905063322 77 264 0.0 0.0 0.00 0.00 0.00 99 1015.3
20260905062818 77 264 0.0 0.0 0.00 0.00 0.00 99 1015.5
20260905062313 77 262 0.0 0.0 0.00 0.00 0.00 99 1015.3
20260905061808 77 266 0.0 0.0 0.00 0.00 0.00 99 1015.7
20260905061307 77 265 0.0 0.0 0.00 0.00 0.00 99 1015.6
20260905060802 77 269 0.0 0.0 0.00 0.00 0.00 99 1015.4
20260905060259 77 267 0.0 0.0 0.00 0.00 0.00 99 1015.8
20260905055757 77 264 0.0 0.0 0.00 0.00 0.00 98 1015.6
20260905055252 77 261 0.0 0.0 0.00 0.00 0.00 98 1015.8
20260905054747 77 260 0.0 0.0 0.00 0.00 0.00 98 1015.5
20260905054244 77 263 0.0 0.0 0.00 0.00 0.00 98 1015.8
20260905053743 77 265 0.0 0.0 0.00 0.00 0.00 98 1015.5
20260905053238 77 262 0.0 0.0 0.00 0.00 0.00 98 1015.8
20260905052738 77 264 0.0 0.0 0.00 0.00 0.00 98 1015.5
20260905052233 78 260 0.0 0.0 0.00 0.00 0.00 98 1015.8
20260905051732 78 265 0.0 0.0 0.00 0.00 0.00 98 1015.5
20260905051229 78 269 0.0 0.0 0.00 0.00 0.00 98 1015.5
20260905050725 78 261 0.0 0.0 0.00 0.00 0.00 98 1015.6
20260905050222 78 270 0.0 0.0 0.00 0.00 0.00 98 1015.5
20260905045721 78 266 0.0 0.0 0.00 0.00 0.00 98 1015.5
20260905045217 78 260 0.0 0.0 0.00 0.00 0.00 98 1015.5
20260905044712 78 259 0.0 0.0 0.00 0.00 0.00 98 1015.6
20260905044208 78 258 0.0 0.0 0.00 0.00 0.00 98 1015.5
20260905043706 78 262 0.0 0.0 0.00 0.00 0.00 97 1015.8
20260905043201 78 261 0.0 0.0 0.00 0.00 0.00 97 1015.7
20260905042700 78 262 0.0 0.0 0.00 0.00 0.00 97 1016.0
20260905042155 78 262 0.0 0.0 0.00 0.00 0.00 97 1015.4
20260905041651 78 263 0.0 0.0 0.00 0.00 0.00 97 1015.5
20260905041146 78 265 0.0 0.0 0.00 0.00 0.00 97 1015.5
20260905040641 78 262 0.0 0.0 0.00 0.00 0.00 97 1015.6
20260905040139 78 272 0.0 0.0 0.00 0.00 0.00 97 1015.5
20260905035634 78 272 0.0 0.0 0.00 0.00 0.00 97 1015.5
20260905035131 79 267 0.0 0.0 0.00 0.00 0.00 97 1015.5
20260905034626 79 262 0.0 0.0 0.00 0.00 0.00 97 1015.5
20260905034125 79 262 0.0 0.0 0.00 0.00 0.00 97 1015.5
20260905033620 79 276 0.0 0.0 0.00 0.00 0.00 97 1015.4
20260905033115 79 265 0.0 0.0 0.00 0.00 0.00 97 1015.6
20260905032609 79 262 0.0 0.0 0.00 0.00 0.00 96 1015.5
20260905032104 79 270 0.0 0.0 0.00 0.00 0.00 96 1015.7
20260905031600 79 266 0.0 0.0 0.00 0.00 0.00 96 1015.8
20260905031100 79 269 0.0 0.0 0.00 0.00 0.00 96 1015.5
20260905030555 79 266 0.0 0.0 0.00 0.00 0.00 96 1015.5
20260905030050 80 267 0.0 0.0 0.00 0.00 0.00 95 1015.3
20260905025545 80 274 0.0 0.0 0.00 0.00 0.00 95 1015.3
20260905025041 80 273 0.0 0.0 0.00 0.00 0.00 95 1015.4
20260905024536 80 271 0.0 0.0 0.00 0.00 0.00 95 1015.3
20260905024032 80 265 0.0 0.0 0.00 0.00 0.00 94 1015.4
20260905023527 80 267 0.0 0.0 0.00 0.00 0.00 94 1015.2
20260905023027 80 279 0.0 0.0 0.00 0.00 0.00 94 1015.4
20260905022521 81 270 0.0 0.0 0.00 0.00 0.00 94 1015.4